Flag for French Guiana

Past Weather in Maripasoula, French Guiana — Yesterday and Last 2 Weeks

Now
84 °F

Sunny.


Feels Like: 91 °F
Forecast: 88 / 72 °F
Wind: 5 mph from East

Location: Cayenne / Rochambeau

Current Time: Jul 10, 2020 at 7:05:43 pm

Latest Report: Jul 10, 2020 at 6:30 pm


Visibility: 10 mi

Pressure: 29.89 "Hg

Humidity: 70%

Dew Point: 73 °F

Location of MaripasoulaLocation

Past Weather in Maripasoula — Graph

°F

Maripasoula Temperature Yesterday

Maximum temperature yesterday: 90 °F (at 10:30 am)
Minimum temperature yesterday: 73 °F (at 6:00 am)
Average temperature yesterday: 79 °F

High & Low Weather Summary for the Past Weeks

 TemperatureHumidityPressure
High91 °F (Jul 7, 3:30 pm)100% (Jun 25, 8:30 pm)29.95 "Hg (Jun 25, 8:30 pm)
Low73 °F (Jun 27, 4:00 am)46% (Jul 7, 3:30 pm)29.77 "Hg (Jun 27, 3:30 pm)
Average79 °F89%29.87 "Hg
* Reported Jun 25 6:00 pm — Jul 10 6:00 pm, Maripasoula. Weather by CustomWeather, © 2020

Note: Actual official high and low records may vary slightly from our data, if they occured in-between our weather recording intervals... More about our weather records

Maripasoula Weather History for the Previous 24 Hours

Scroll right to see more
 ConditionsComfort  
Time TempWeatherWind HumidityBarometerVisibility
6:00 pm
Fri, Jul 10
86 °FPassing clouds.8 mph66%29.86 "HgN/A
5:30 pm88 °FPassing clouds.9 mph62%29.86 "HgN/A
5:00 pm88 °FPassing clouds.10 mph59%29.86 "HgN/A
4:30 pm88 °FPassing clouds.12 mph62%29.86 "HgN/A
4:00 pm88 °FPassing clouds.13 mph62%29.86 "HgN/A
3:30 pm90 °FPassing clouds.12 mph63%29.86 "HgN/A
3:00 pm90 °FPassing clouds.13 mph55%29.86 "HgN/A
2:30 pm90 °FPassing clouds.14 mph55%29.89 "HgN/A
2:00 pm88 °FPartly sunny.2 mph66%29.89 "HgN/A
1:30 pm88 °FPartly sunny.6 mph70%29.92 "HgN/A
1:00 pm90 °FPartly sunny.9 mph59%29.92 "HgN/A
12:30 pm90 °FPartly sunny.10 mph63%29.92 "HgN/A
12:00 pm88 °FBroken clouds.5 mph66%29.92 "HgN/A
11:30 am88 °FBroken clouds.6 mph66%29.92 "HgN/A
11:00 am88 °FBroken clouds.5 mph66%29.95 "HgN/A
10:30 am86 °FPartly sunny.3 mph70%29.95 "HgN/A
10:00 am84 °FPartly sunny.2 mph74%29.95 "HgN/A
9:00 am79 °FPassing clouds.3 mph89%29.95 "HgN/A
8:30 am77 °FPassing clouds.3 mph100%29.95 "HgN/A
8:00 am75 °FScattered clouds.1 mph100%29.92 "HgN/A
7:30 am73 °FPassing clouds.1 mph100%29.92 "HgN/A
7:00 am73 °FScattered clouds.No wind100%29.92 "HgN/A
6:30 am73 °FFog.No wind100%29.92 "Hg1 mi
6:00 am73 °FDense fog.No wind100%29.89 "Hg1 mi
5:30 am73 °FFog.No wind100%29.89 "Hg1 mi
5:00 am73 °FFog.No wind100%29.89 "Hg1 mi
4:30 am73 °FFog.No wind100%29.89 "Hg1 mi
4:00 am73 °FFog.2 mph100%29.89 "Hg1 mi
3:30 am73 °FFog.No wind100%29.89 "Hg1 mi
3:00 am73 °FFog.No wind100%29.89 "Hg2 mi
2:30 am75 °FLight fog.No wind100%29.89 "Hg4 mi
2:00 am75 °FLight fog.No wind100%29.89 "Hg4 mi
1:30 am75 °FClear.1 mph100%29.92 "Hg10 mi
1:00 am75 °FClear.No wind100%29.92 "Hg10 mi
12:30 am75 °FMostly cloudy.2 mph100%29.92 "HgN/A
12:00 am75 °FFog.2 mph100%29.95 "Hg3 mi
11:30 pm
Thu, Jul 9
77 °FLow clouds.3 mph100%29.95 "HgN/A
11:00 pm75 °FMostly cloudy.No wind100%29.95 "HgN/A
10:30 pm75 °FClear.2 mph100%29.95 "Hg10 mi
10:00 pm75 °FLow clouds.No wind100%29.95 "HgN/A
9:30 pm75 °FClear.1 mph100%29.95 "Hg10 mi
9:00 pm77 °FMostly cloudy.6 mph100%29.95 "HgN/A
8:30 pm77 °FWarm.2 mph100%29.92 "HgN/A
8:00 pm77 °FWarm.No wind100%29.92 "HgN/A
7:30 pm77 °FPartly cloudy.2 mph100%29.92 "HgN/A
7:00 pm77 °FOvercast.2 mph100%29.92 "HgN/A
Weather by CustomWeather, © 2020

See weather overview